Deploy1-SMDC1.2
1 99991U 00000    12258.03162037 0.00000000  00000-0  00000-0 0  0000
2 99991  64.6682  40.2555 0218220 288.7561 144.3679 14.81392522000005
Deploy2-Aeneas
1 99992U 00000    12258.03370370 0.00000000  00000-0  00000-0 0  0002
2 99992  64.6663  40.2440 0221030 289.3403 154.8615 14.81677787000008
Deploy3-CSSWE
1 99993U 00000    12258.03578704 0.00000000  00000-0  00000-0 0  0004
2 99993  64.6664  40.2323 0222230 290.2128 165.0649 14.81671740000002
Deploy4-CXBN-CP5
1 99994U 00000    12258.03787037 0.00000000  00000-0  00000-0 0  0006
2 99994  64.6685  40.2209 0221340 291.1030 175.2532 14.81351397000009
Deploy5-CINEMA
1 99995U 00000    12258.03995370 0.00000000  00000-0  00000-0 0  0008
2 99995  64.6722  40.2108 0218680 291.7893 185.6484 14.80775147000009
Deploy6-Re
1 99996U 00000    12258.04203704 0.00000000  00000-0  00000-0 0  0003
2 99996  64.6770  40.2024 0214940 292.0830 196.4405 14.80017181000000
Deploy7-SMDC1.1
1 99997U 00000    12258.04412037 0.00000000  00000-0  00000-0 0  0005
2 99997  64.6823  40.1961 0211080 291.8916 207.7229 14.79175409000009
Deploy8-AC4
1 99998U 00000    12258.04620370 0.00000000  00000-0  00000-0 0  0007
2 99998  64.6874  40.1920 0208170 291.2770 219.4338 14.78370868000005
